Wind_Speed
5 4 4 4 3 3 3 3 3 4 4 4 4 4 5 5 5 4 4 4 4 4 4 4 4 5 5 5 5 5 5 5 6 6 7 8 8 8 8 7 7 7 7
5 5 4 4 4 3 3 3 3 4 5 5 4 5 5 5 5 5 5 4 4 4 4 5 5 5 6 7 7 6 6 6 6 6 6 8 8 9 9 8 8 8 8
5 5 4 4 4 3 3 3 4 4 5 5 5 5 5 6 6 6 6 5 5 5 5 6 6 6 7 7 8 7 7 7 7 7 8 8 9 9 9 10 10 10 10
5 5 4 4 4 4 4 4 4 4 4 5 6 6 6 6 7 7 7 7 6 6 6 7 7 7 7 8 9 9 8 8 9 9 9 9 10 11 11 11 11 11 11
6 5 5 5 5 5 4 4 4 5 5 5 6 7 6 7 7 8 8 8 8 7 7 7 7 8 8 9 9 9 8 8 9 9 10 11 11 11 11 12 12 12 12
6 6 6 6 5 5 5 5 5 5 6 6 6 6 7 7 7 8 8 9 9 9 8 8 8 8 9 9 9 10 9 9 10 10 10 11 11 12 12 12 12 12 12
6 6 6 6 6 6 6 6 6 6 7 7 7 7 7 7 7 7 8 8 9 9 9 10 10 10 10 9 10 11 11 11 11 11 11 11 11 12 12 13 13 13 13
7 7 7 7 7 7 7 8 8 8 8 8 8 8 8 8 8 8 8 9 9 9 10 10 11 11 10 11 11 11 11 12 11 11 12 12 12 12 13 13 13 14 14
7 7 8 8 8 8 8 8 8 9 9 9 9 9 9 9 9 9 9 10 10 11 11 11 11 11 11 12 12 12 12 12 12 12 12 13 13 13 12 13 13 13 14
8 8 8 8 8 8 8 8 9 9 9 9 9 10 10 10 10 10 10 11 11 11 11 12 12 12 12 13 12 12 12 13 13 13 13 13 13 12 12 13 13 14 14
7 7 7 7 7 7 7 8 8 8 9 9 10 10 10 10 11 11 11 11 11 12 12 12 12 12 12 13 13 13 13 13 13 13 13 14 14 14 14 14 14 14 14
7 7 7 7 7 7 7 8 8 9 9 10 10 10 10 10 11 12 12 12 12 12 12 12 13 13 13 13 13 13 13 14 14 14 14 14 14 14 15 14 14 15 15
7 7 7 8 8 8 8 8 9 9 9 10 11 11 11 11 11 12 12 13 13 13 13 13 13 14 14 13 14 14 14 14 14 14 14 14 14 14 15 15 15 15 14
7 8 8 8 9 9 9 9 10 10 10 11 11 11 11 11 12 13 13 13 14 14 14 14 14 14 14 15 15 15 15 15 14 15 15 15 15 16 16 16 16 15 15
7 8 8 8 9 9 9 10 10 11 11 11 12 12 12 12 13 14 15 15 15 15 15 15 15 16 16 16 16 16 16 16 16 16 16 16 16 17 17 17 17 16 16
7 8 8 9 9 10 10 10 11 11 12 12 13 13 14 14 14 14 15 16 16 16 16 17 16 16 16 16 16 17 17 18 18 18 17 17 17 18 18 18 18 18 17
8 9 9 9 10 10 10 11 11 11 12 13 13 14 14 14 14 15 15 15 16 16 17 17 17 17 17 17 17 17 17 18 18 19 18 18 18 18 19 19 19 18 17
8 9 9 9 10 10 11 11 11 12 12 13 13 14 14 14 14 14 15 15 16 16 17 17 17 18 17 17 17 17 17 17 18 18 18 18 19 19 19 18 18 18 18
9 9 9 10 10 11 11 11 12 12 12 13 13 14 14 15 15 15 15 15 16 16 17 17 18 18 18 18 18 18 18 17 18 18 19 18 18 19 19 19 19 19 18
9 9 10 10 10 11 11 11 12 12 13 13 13 14 14 14 15 15 15 16 16 16 17 17 18 18 18 18 18 18 18 18 18 18 18 19 18 18 19 20 19 19 19
9 9 10 10 11 11 11 12 12 12 12 13 13 13 13 14 14 15 16 16 16 17 17 18 18 18 18 18 18 19 19 19 19 19 19 19 19 19 19 20 20 20 20
9 10 10 10 10 11 11 12 12 12 13 13 13 13 13 14 14 14 14 15 16 16 17 18 18 19 19 18 18 19 19 19 20 20 20 20 20 20 20 19 20 21 21
9 10 10 10 11 11 11 12 12 13 13 13 13 12 13 13 14 14 14 15 15 16 16 17 18 19 19 19 19 19 19 19 19 20 20 19 20 20 20 20 21 21 21
11 11 11 11 11 11 11 12 12 12 13 13 13 13 13 13 14 14 14 14 14 15 16 16 17 18 18 19 19 19 20 19 20 19 19 20 19 20 20 21 21 21 22
12 12 12 12 12 12 12 13 13 13 13 14 13 13 14 14 14 14 14 14 14 15 15 15 16 16 17 18 19 20 20 20 20 20 19 20 20 20 20 21 21 22 22
14 13 13 13 13 13 13 14 14 14 14 14 14 14 14 14 14 14 14 14 15 15 15 16 16 16 16 17 18 19 20 20 21 21 21 21 21 20 20 20 21 22 22
Wind_Direction
199 201 203 204 205 205 204 212 205 203 201 197 202 207 207 208 209 208 207 208 207 206 204 204 211 211 212 218 222 219 217 221 218 219 218 216 218 217 219 218 218 220 221
207 206 206 209 205 203 215 225 223 216 211 206 208 209 212 213 217 219 218 222 230 228 218 219 228 228 224 225 228 225 222 221 219 222 220 220 223 225 227 226 229 234 231
208 204 202 202 204 207 217 227 227 226 219 215 217 218 219 222 225 227 230 233 236 237 235 236 239 242 233 230 230 229 232 230 226 226 224 225 228 229 231 236 240 242 238
216 213 208 209 215 218 225 228 226 225 226 229 229 227 228 231 233 235 236 238 239 242 241 243 247 239 236 235 233 234 238 239 233 232 232 234 236 237 240 242 244 245 241
221 223 226 225 227 228 228 230 232 232 231 237 237 234 236 242 244 244 242 242 243 243 245 248 247 235 236 236 236 238 238 239 240 238 239 240 241 242 242 244 245 247 245
227 231 233 234 236 236 239 241 246 245 242 242 243 238 242 249 250 249 247 244 245 244 246 249 247 245 239 240 241 241 239 241 243 243 246 246 244 243 244 245 247 248 248
232 233 236 238 239 243 247 247 252 257 257 254 253 249 247 249 249 247 245 244 245 247 248 249 249 248 245 245 244 244 243 244 246 244 244 245 243 243 246 246 248 249 249
231 233 235 236 240 243 246 248 251 255 255 254 253 253 253 254 253 250 244 245 248 252 253 254 250 248 248 248 248 248 246 248 250 249 247 246 247 247 249 249 249 249 253
234 233 235 238 243 244 245 249 250 252 254 254 253 255 255 254 254 254 252 251 253 256 256 256 253 251 249 250 251 250 250 251 252 252 250 249 251 250 250 251 253 251 252
235 235 236 240 243 244 246 249 249 249 249 249 250 254 256 257 256 256 255 255 254 255 256 257 253 251 251 251 253 253 251 252 254 253 251 249 250 250 250 252 255 257 255
239 239 238 239 242 244 248 249 248 248 249 249 251 254 257 259 257 257 258 258 258 256 255 256 253 253 252 252 252 253 253 255 252 252 250 250 251 252 253 254 255 256 255
238 241 241 242 246 248 251 250 253 253 254 253 253 253 256 257 257 257 256 259 259 257 255 255 256 256 255 256 254 253 254 253 253 254 254 253 252 253 255 254 254 255 254
242 243 245 248 249 252 253 252 254 255 255 255 257 258 259 260 261 260 258 259 259 259 257 257 257 257 256 256 255 256 255 254 256 255 254 254 252 253 254 255 257 256 255
247 248 252 251 251 254 254 252 252 254 256 258 260 263 266 267 266 265 261 260 261 261 260 259 258 258 258 256 257 256 255 255 256 253 253 255 254 253 253 255 255 254 254
252 255 259 257 255 254 255 255 254 256 259 263 264 266 268 270 270 269 265 262 261 262 260 259 259 260 261 260 259 257 256 257 256 254 253 256 257 256 256 257 254 251 252
257 261 263 261 257 255 258 260 259 261 263 265 265 267 269 271 273 272 267 266 264 263 262 261 261 261 260 260 260 259 259 258 258 255 254 254 254 254 256 257 255 254 254
264 264 264 263 260 258 259 261 260 263 267 265 266 269 271 271 272 271 271 269 267 265 263 262 262 262 262 262 261 262 261 261 259 258 257 256 255 254 254 255 254 255 256
265 266 266 266 264 263 262 262 263 266 268 269 271 272 272 272 273 272 271 270 268 266 265 264 262 263 263 263 262 262 262 263 261 258 256 256 256 255 254 253 253 254 253
267 268 268 269 268 266 265 264 265 267 268 271 274 275 276 275 274 274 273 272 272 269 266 265 263 263 264 264 264 263 262 262 262 261 258 256 255 255 256 253 252 253 253
269 270 269 269 271 270 269 270 271 271 272 273 275 276 277 278 275 275 275 275 275 272 268 266 264 264 265 266 265 264 261 261 261 261 262 260 257 255 255 253 253 253 253
273 275 273 271 272 273 271 272 273 273 274 274 275 278 281 281 279 278 277 277 276 273 270 267 265 265 265 267 266 264 262 261 261 263 263 261 258 257 256 254 253 253 254
273 277 277 277 277 276 274 273 274 275 275 273 273 279 284 284 283 282 283 281 277 275 271 268 266 264 264 264 265 265 264 263 262 263 262 261 260 259 256 254 253 253 255
273 277 279 280 279 278 277 278 278 279 279 278 279 280 284 286 288 286 285 282 280 278 276 272 267 264 262 262 263 264 265 264 263 263 262 262 262 260 256 253 251 252 254
273 275 278 279 279 279 278 280 283 283 281 280 280 281 284 287 288 287 286 285 284 282 280 276 271 267 263 263 264 265 264 263 262 262 260 261 262 260 258 255 252 252 254
271 273 275 275 277 278 280 280 282 282 282 282 282 282 283 285 287 287 287 287 286 285 283 280 275 270 265 264 265 265 264 263 262 262 261 261 260 260 260 256 254 255 255
271 272 273 273 274 276 278 281 281 282 282 283 282 281 283 285 287 288 288 287 286 287 285 281 276 271 267 267 268 267 267 264 263 263 263 263 263 261 261 259 258 257 257
Height
5870 5870 5870 5870 5870 5870 5870 5871 5871 5871 5871 5872 5872 5872 5873 5873 5873 5873 5874 5874 5874 5874 5874 5874 5874 5874 5875 5875 5875 5876 5877 5878 5878 5878 5879 5879 5880 5880 5881 5881 5881 5882 5882
5870 5870 5870 5870 5870 5870 5870 5870 5870 5871 5871 5871 5872 5872 5872 5873 5873 5873 5873 5873 5873 5873 5873 5873 5873 5874 5874 5874 5875 5876 5876 5877 5877 5878 5878 5878 5879 5880 5880 5881 5881 5881 5882
5869 5869 5869 5869 5870 5870 5870 5870 5870 5870 5870 5871 5871 5871 5872 5872 5872 5872 5872 5872 5873 5873 5872 5872 5872 5873 5873 5873 5874 5875 5875 5876 5876 5877 5877 5878 5878 5879 5880 5880 5880 5880 5881
5868 5868 5868 5869 5869 5869 5869 5869 5869 5869 5870 5870 5870 5870 5871 5871 5871 5871 5871 5872 5872 5872 5871 5871 5871 5871 5871 5872 5873 5874 5874 5875 5875 5876 5876 5876 5877 5877 5878 5878 5879 5879 5880
5867 5868 5868 5868 5868 5869 5869 5868 5868 5868 5869 5869 5869 5869 5870 5870 5870 5870 5870 5870 5870 5870 5870 5870 5870 5869 5870 5871 5871 5872 5873 5873 5873 5874 5874 5875 5875 5875 5876 5876 5877 5877 5878
5867 5867 5867 5867 5868 5868 5868 5868 5868 5867 5868 5868 5868 5868 5869 5869 5869 5869 5869 5869 5869 5869 5869 5869 5869 5869 5869 5870 5871 5871 5871 5872 5872 5872 5873 5873 5873 5873 5874 5875 5875 5875 5876
5865 5866 5866 5866 5867 5867 5867 5867 5867 5867 5867 5867 5867 5867 5868 5868 5867 5867 5867 5867 5867 5867 5867 5868 5868 5868 5869 5869 5869 5869 5870 5870 5870 5870 5871 5871 5871 5872 5872 5873 5873 5873 5874
5864 5864 5865 5865 5865 5865 5866 5866 5866 5866 5866 5866 5866 5866 5866 5866 5866 5866 5866 5866 5866 5866 5866 5866 5866 5866 5867 5867 5867 5867 5868 5868 5868 5868 5869 5869 5869 5870 5870 5870 5870 5871 5871
5863 5863 5863 5864 5864 5864 5864 5864 5864 5864 5865 5865 5865 5865 5865 5865 5865 5864 5864 5865 5864 5864 5864 5864 5864 5864 5865 5865 5865 5865 5866 5866 5866 5866 5867 5867 5867 5868 5868 5868 5868 5869 5869
5861 5861 5862 5862 5862 5862 5862 5862 5862 5863 5863 5863 5863 5863 5863 5863 5863 5863 5863 5863 5862 5862 5862 5862 5862 5862 5863 5863 5863 5863 5863 5864 5864 5864 5864 5865 5865 5866 5866 5866 5866 5867 5867
5859 5860 5860 5860 5860 5860 5860 5861 5861 5861 5861 5861 5861 5861 5861 5861 5861 5861 5861 5860 5860 5860 5860 5860 5860 5860 5860 5861 5861 5861 5861 5861 5861 5861 5862 5862 5863 5863 5863 5863 5863 5864 5864
5858 5858 5858 5859 5859 5859 5859 5859 5859 5859 5859 5859 5859 5859 5859 5859 5859 5858 5858 5858 5858 5858 5858 5858 5858 5858 5858 5858 5858 5858 5859 5859 5859 5858 5859 5859 5860 5860 5860 5861 5861 5861 5862
5856 5857 5857 5857 5857 5857 5857 5857 5857 5857 5857 5857 5857 5857 5857 5856 5856 5856 5856 5856 5855 5855 5855 5855 5855 5855 5855 5855 5855 5856 5856 5856 5856 5855 5856 5857 5857 5857 5858 5858 5858 5859 5859
5855 5855 5855 5855 5855 5855 5855 5855 5855 5855 5855 5855 5854 5854 5854 5854 5853 5853 5853 5853 5853 5853 5852 5852 5852 5852 5852 5852 5852 5853 5853 5853 5853 5852 5853 5853 5854 5854 5855 5855 5856 5856 5856
5853 5853 5853 5853 5853 5853 5852 5852 5852 5852 5852 5852 5852 5852 5851 5851 5850 5850 5850 5850 5849 5849 5849 5849 5849 5849 5849 5849 5849 5849 5850 5850 5850 5850 5850 5850 5851 5851 5851 5852 5852 5852 5853
5851 5851 5851 5851 5850 5850 5850 5850 5850 5849 5849 5849 5849 5848 5848 5848 5847 5847 5846 5846 5846 5846 5846 5846 5846 5846 5846 5846 5846 5846 5846 5846 5846 5846 5847 5847 5847 5848 5848 5848 5849 5849 5849
5849 5849 5849 5848 5848 5848 5847 5847 5847 5846 5846 5846 5846 5845 5845 5844 5844 5843 5843 5842 5842 5842 5842 5842 5842 5842 5842 5842 5842 5842 5843 5843 5843 5843 5843 5843 5844 5844 5844 5845 5845 5846 5846
5847 5847 5846 5846 5846 5845 5845 5844 5844 5844 5843 5843 5842 5842 5841 5841 5840 5840 5839 5838 5838 5838 5838 5838 5838 5838 5838 5838 5839 5839 5839 5839 5839 5839 5839 5839 5840 5840 5840 5841 5841 5842 5843
5845 5844 5844 5844 5843 5843 5842 5842 5841 5841 5840 5840 5839 5838 5838 5837 5836 5836 5835 5835 5834 5834 5833 5833 5834 5834 5834 5834 5834 5835 5835 5835 5835 5835 5835 5835 5836 5836 5836 5837 5837 5838 5839
5842 5842 5842 5841 5841 5840 5839 5839 5838 5838 5837 5836 5836 5835 5834 5834 5833 5832 5831 5831 5830 5829 5829 5829 5829 5829 5830 5830 5830 5830 5830 5831 5831 5831 5831 5831 5831 5832 5832 5833 5833 5834 5835
5840 5840 5839 5838 5838 5837 5836 5836 5835 5835 5834 5833 5833 5832 5831 5830 5829 5828 5827 5827 5826 5825 5824 5824 5825 5825 5825 5825 5825 5826 5826 5826 5826 5827 5827 5827 5827 5827 5828 5828 5828 5829 5830
5837 5837 5836 5836 5835 5834 5833 5833 5832 5831 5831 5830 5829 5829 5827 5826 5825 5824 5823 5823 5821 5821 5820 5820 5820 5820 5820 5820 5821 5821 5821 5822 5822 5822 5822 5822 5822 5823 5823 5823 5824 5824 5825
5835 5834 5834 5833 5832 5831 5830 5830 5829 5829 5828 5827 5826 5825 5824 5823 5822 5821 5820 5819 5817 5816 5816 5815 5815 5815 5815 5816 5816 5817 5817 5817 5817 5817 5817 5817 5818 5818 5818 5818 5819 5819 5820
5832 5831 5830 5830 5829 5828 5828 5827 5826 5825 5825 5824 5823 5822 5821 5819 5818 5817 5816 5815 5813 5812 5811 5810 5809 5810 5810 5811 5811 5811 5811 5811 5812 5812 5812 5812 5813 5813 5813 5813 5813 5814 5815
5828 5828 5827 5827 5826 5825 5825 5824 5823 5822 5821 5820 5819 5818 5817 5816 5815 5814 5812 5811 5810 5808 5807 5805 5805 5805 5805 5806 5806 5806 5806 5806 5806 5807 5807 5807 5807 5808 5808 5808 5808 5808 5809
5825 5824 5824 5823 5823 5822 5821 5821 5820 5819 5818 5817 5816 5815 5814 5813 5811 5810 5809 5807 5806 5804 5803 5802 5801 5801 5801 5801 5801 5801 5801 5801 5801 5802 5802 5802 5802 5802 5802 5802 5803 5803 5803